,,,PA_Meas_PMT16A,,PR_Meas_QMR101_102,,RH_Meas_QMH101,,SR_Meas_QMS101,,TA_Meas_QMH101,,GenWind,,GenWind,
date,time,status,PA,status,PR,status,RH,status,SR,status,TA,status,DirAvg,status,SpdAvg,
2013-03-09, 00:00:04,VALID,1010.85,VALID,0,VALID,104,VALID,0,VALID,23.8871,VALID,4,VALID,0,
2013-03-09, 00:01:04,VALID,1010.86,VALID,0,VALID,104,VALID,0,VALID,23.8871,VALID,4,VALID,0,
2013-03-09, 00:02:04,VALID,1010.86,VALID,0,VALID,104,VALID,0,VALID,23.8889,VALID,4,VALID,0,
2013-03-09, 00:03:04,VALID,1010.86,VALID,0,VALID,104,VALID,0,VALID,23.8676,VALID,4,VALID,0,
2013-03-09, 00:04:04,VALID,1010.85,VALID,0,VALID,104,VALID,0,VALID,23.8694,VALID,4,VALID,0,
2013-03-09, 00:05:04,VALID,1010.85,VALID,0,VALID,104,VALID,0,VALID,23.9084,VALID,4,VALID,0,
2013-03-09, 00:06:04,VALID,1010.82,VALID,0,VALID,104,VALID,0,VALID,23.9084,VALID,4,VALID,0,
2013-03-09, 00:07:04,VALID,1010.79,VALID,0,VALID,104,VALID,0,VALID,23.9278,VALID,4,VALID,0,
2013-03-09, 00:08:04,VALID,1010.78,VALID,0,VALID,104,VALID,0,VALID,23.9084,VALID,4,VALID,0,
2013-03-09, 00:09:04,VALID,1010.77,VALID,0,VALID,104,VALID,0,VALID,23.9278,VALID,4,VALID,0,
2013-03-09, 00:10:04,VALID,1010.75,VALID,0,VALID,104,VALID,0,VALID,23.9473,VALID,4,VALID,0,
2013-03-09, 00:11:04,VALID,1010.73,VALID,0,VALID,104,VALID,0,VALID,23.9473,VALID,4,VALID,0,
2013-03-09, 00:12:04,VALID,1010.74,VALID,0,VALID,104,VALID,0,VALID,23.9473,VALID,4,VALID,0,
2013-03-09, 00:13:04,VALID,1010.7,VALID,0,VALID,104,VALID,0,VALID,23.9668,VALID,4,VALID,0,
2013-03-09, 00:14:04,VALID,1010.69,VALID,0,VALID,104,VALID,0,VALID,23.9668,VALID,4,VALID,0.158203,
2013-03-09, 00:15:04,VALID,1010.66,VALID,0,VALID,104,VALID,0,VALID,23.9455,VALID,4,VALID,0.0582031,
2013-03-09, 00:16:04,VALID,1010.63,VALID,0,VALID,104,VALID,0,VALID,23.9065,VALID,4,VALID,0,
2013-03-09, 00:17:04,VALID,1010.62,VALID,0,VALID,104,VALID,0,VALID,23.8889,VALID,4,VALID,0,
2013-03-09, 00:18:04,VALID,1010.63,VALID,0,VALID,104,VALID,0,VALID,23.8694,VALID,4,VALID,0,
2013-03-09, 00:19:04,VALID,1010.61,VALID,0,VALID,104,VALID,0,VALID,23.8304,VALID,4,VALID,0,
2013-03-09, 00:20:04,VALID,1010.65,VALID,0,VALID,104,VALID,0,VALID,23.8499,VALID,4,VALID,0.126563,
2013-03-09, 00:21:04,VALID,1010.62,VALID,0,VALID,104,VALID,0,VALID,23.8499,VALID,4,VALID,0.161719,
2013-03-09, 00:22:04,VALID,1010.62,VALID,0,VALID,104,VALID,0,VALID,23.8304,VALID,4,VALID,0.00351562,
2013-03-09, 00:23:04,VALID,1010.62,VALID,0,VALID,104,VALID,0,VALID,23.8304,VALID,3,VALID,0,
2013-03-09, 00:24:04,VALID,1010.6,VALID,0,VALID,104,VALID,0,VALID,23.8499,VALID,3,VALID,0,
2013-03-09, 00:25:04,VALID,1010.61,VALID,0,VALID,104,VALID,0,VALID,23.8304,VALID,4,VALID,0,
2013-03-09, 00:26:04,VALID,1010.62,VALID,0,VALID,104,VALID,0,VALID,23.8499,VALID,4,VALID,0,
2013-03-09, 00:27:04,VALID,1010.6,VALID,0,VALID,104,VALID,0,VALID,23.7896,VALID,4,VALID,0,
2013-03-09, 00:28:04,VALID,1010.61,VALID,0,VALID,104,VALID,0,VALID,23.7507,VALID,4,VALID,0,
2013-03-09, 00:29:04,VALID,1010.6,VALID,0,VALID,104,VALID,0,VALID,23.7525,VALID,4,VALID,0,
2013-03-09, 00:30:04,VALID,1010.6,VALID,0,VALID,104,VALID,0,VALID,23.7525,VALID,4,VALID,0,
2013-03-09, 00:31:04,VALID,1010.6,VALID,0,VALID,104,VALID,0,VALID,23.7117,VALID,4,VALID,0,
2013-03-09, 00:32:04,VALID,1010.58,VALID,0,VALID,104,VALID,0,VALID,23.733,VALID,4,VALID,0,
2013-03-09, 00:33:04,VALID,1010.56,VALID,0,VALID,104,VALID,0,VALID,23.6922,VALID,4,VALID,0,
2013-03-09, 00:34:04,VALID,1010.54,VALID,0,VALID,104,VALID,0,VALID,23.694,VALID,4,VALID,0,
2013-03-09, 00:35:04,VALID,1010.56,VALID,0,VALID,104,VALID,0,VALID,23.6922,VALID,4,VALID,0,
2013-03-09, 00:36:04,VALID,1010.51,VALID,0,VALID,104,VALID,0,VALID,23.694,VALID,4,VALID,0,
2013-03-09, 00:37:04,VALID,1010.5,VALID,0,VALID,104,VALID,0,VALID,23.7135,VALID,4,VALID,0,
2013-03-09, 00:38:04,VALID,1010.49,VALID,0,VALID,104,VALID,0,VALID,23.7135,VALID,4,VALID,0,
2013-03-09, 00:39:04,VALID,1010.5,VALID,0,VALID,104,VALID,0,VALID,23.733,VALID,3,VALID,0,
2013-03-09, 00:40:04,VALID,1010.48,VALID,0,VALID,104,VALID,0,VALID,23.6922,VALID,4,VALID,0,
2013-03-09, 00:41:04,VALID,1010.47,VALID,0,VALID,104,VALID,0,VALID,23.694,VALID,3,VALID,0.221875,
2013-03-09, 00:42:04,VALID,1010.45,VALID,0,VALID,104,VALID,0,VALID,23.694,VALID,4,VALID,0.328516,
2013-03-09, 00:43:04,VALID,1010.44,VALID,0,VALID,104,VALID,0,VALID,23.6745,VALID,4,VALID,0.340234,
2013-03-09, 00:44:04,VALID,1010.38,VALID,0,VALID,104,VALID,0,VALID,23.655,VALID,4,VALID,0.323047,
2013-03-09, 00:45:04,VALID,1010.35,VALID,0,VALID,104,VALID,0,VALID,23.655,VALID,4,VALID,0.323828,
2013-03-09, 00:46:04,VALID,1010.34,VALID,0,VALID,104,VALID,0,VALID,23.6338,VALID,4,VALID,0.474219,
2013-03-09, 00:47:04,VALID,1010.34,VALID,0,VALID,104,VALID,0,VALID,23.655,VALID,4,VALID,0.275,
2013-03-09, 00:48:04,VALID,1010.32,VALID,0,VALID,104,VALID,0,VALID,23.6745,VALID,4,VALID,0.261719,
2013-03-09, 00:49:04,VALID,1010.31,VALID,0,VALID,104,VALID,0,VALID,23.694,VALID,4,VALID,0.202344,
2013-03-09, 00:50:04,VALID,1010.32,VALID,0,VALID,104,VALID,0,VALID,23.7135,VALID,4,VALID,0.1125,
2013-03-09, 00:51:04,VALID,1010.31,VALID,0,VALID,104,VALID,0,VALID,23.7135,VALID,4,VALID,0.143359,
2013-03-09, 00:52:04,VALID,1010.28,VALID,0,VALID,104,VALID,0,VALID,23.7543,VALID,4,VALID,0.209766,
2013-03-09, 00:53:04,VALID,1010.27,VALID,0,VALID,104,VALID,0,VALID,23.7525,VALID,4,VALID,0.120312,
2013-03-09, 00:54:04,VALID,1010.3,VALID,0,VALID,104,VALID,0,VALID,23.7525,VALID,4,VALID,0.244922,
2013-03-09, 00:55:04,VALID,1010.28,VALID,0,VALID,104,VALID,0,VALID,23.7117,VALID,4,VALID,0.288672,
2013-03-09, 00:56:04,VALID,1010.26,VALID,0,VALID,104,VALID,0,VALID,23.7543,VALID,4,VALID,0.198437,
2013-03-09, 00:57:04,VALID,1010.27,VALID,0,VALID,104,VALID,0,VALID,23.7135,VALID,4,VALID,0.268359,
2013-03-09, 00:58:04,VALID,1010.27,VALID,0,VALID,104,VALID,0,VALID,23.6745,VALID,4,VALID,0.171094,
2013-03-09, 00:59:04,VALID,1010.23,VALID,0,VALID,104,VALID,0,VALID,23.6745,VALID,4,VALID,0.217578,
2013-03-09, 01:00:04,VALID,1010.24,VALID,0,VALID,104,VALID,0,VALID,23.6727,VALID,4,VALID,0.191406,
2013-03-09, 01:01:04,VALID,1010.2,VALID,0,VALID,104,VALID,0,VALID,23.733,VALID,4,VALID,0.00195313,
2013-03-09, 01:02:04,VALID,1010.2,VALID,0,VALID,104,VALID,0,VALID,23.7525,VALID,4,VALID,0,
2013-03-09, 01:03:04,VALID,1010.22,VALID,0,VALID,104,VALID,0,VALID,23.772,VALID,4,VALID,0,
2013-03-09, 01:04:04,VALID,1010.25,VALID,0,VALID,104,VALID,0,VALID,23.7507,VALID,4,VALID,0,
2013-03-09, 01:05:04,VALID,1010.26,VALID,0,VALID,104,VALID,0,VALID,23.7507,VALID,4,VALID,0,
2013-03-09, 01:06:04,VALID,1010.26,VALID,0,VALID,104,VALID,0,VALID,23.7312,VALID,4,VALID,0,
2013-03-09, 01:07:04,VALID,1010.28,VALID,0,VALID,104,VALID,0,VALID,23.7525,VALID,4,VALID,0.119141,
2013-03-09, 01:08:04,VALID,1010.27,VALID,0,VALID,104,VALID,0,VALID,23.7117,VALID,4,VALID,0.00078125,
2013-03-09, 01:09:04,VALID,1010.25,VALID,0,VALID,104,VALID,0,VALID,23.6727,VALID,4,VALID,0.1625,
2013-03-09, 01:10:04,VALID,1010.23,VALID,0,VALID,104,VALID,0,VALID,23.6532,VALID,4,VALID,0.138672,
2013-03-09, 01:11:04,VALID,1010.22,VALID,0,VALID,104,VALID,0,VALID,23.6338,VALID,4,VALID,0.0636719,
2013-03-09, 01:12:04,VALID,1010.22,VALID,0,VALID,104,VALID,0,VALID,23.6338,VALID,4,VALID,0,
2013-03-09, 01:13:04,VALID,1010.23,VALID,0,VALID,104,VALID,0,VALID,23.6338,VALID,4,VALID,0,
2013-03-09, 01:14:04,VALID,1010.23,VALID,0,VALID,104,VALID,0,VALID,23.5948,VALID,4,VALID,0,
2013-03-09, 01:15:04,VALID,1010.21,VALID,0,VALID,104,VALID,0,VALID,23.5558,VALID,4,VALID,0,
2013-03-09, 01:16:04,VALID,1010.24,VALID,0,VALID,104,VALID,0,VALID,23.4974,VALID,4,VALID,0,
2013-03-09, 01:17:04,VALID,1010.23,VALID,0,VALID,104,VALID,0,VALID,23.4761,VALID,4,VALID,0,
2013-03-09, 01:18:04,VALID,1010.2,VALID,0,VALID,104,VALID,0,VALID,23.4974,VALID,4,VALID,0,
2013-03-09, 01:19:04,VALID,1010.2,VALID,0,VALID,104,VALID,0,VALID,23.4992,VALID,4,VALID,0,
2013-03-09, 01:20:04,VALID,1010.18,VALID,0,VALID,104,VALID,0,VALID,23.4797,VALID,4,VALID,0,
2013-03-09, 01:21:04,VALID,1010.17,VALID,0,VALID,104,VALID,0,VALID,23.4584,VALID,4,VALID,0,
2013-03-09, 01:22:04,VALID,1010.15,VALID,0,VALID,104,VALID,0,VALID,23.4602,VALID,4,VALID,0,
2013-03-09, 01:23:04,VALID,1010.15,VALID,0,VALID,104,VALID,0,VALID,23.4407,VALID,4,VALID,0,
2013-03-09, 01:24:04,VALID,1010.14,VALID,0,VALID,104,VALID,0,VALID,23.4,VALID,4,VALID,0,
2013-03-09, 01:25:04,VALID,1010.16,VALID,0,VALID,104,VALID,0,VALID,23.3823,VALID,4,VALID,0,
2013-03-09, 01:26:04,VALID,1010.17,VALID,0,VALID,104,VALID,0,VALID,23.4017,VALID,4,VALID,0,
2013-03-09, 01:27:04,VALID,1010.17,VALID,0,VALID,104,VALID,0,VALID,23.3823,VALID,4,VALID,0,
2013-03-09, 01:28:04,VALID,1010.13,VALID,0,VALID,104,VALID,0,VALID,23.4017,VALID,4,VALID,0,
2013-03-09, 01:29:04,VALID,1010.13,VALID,0,VALID,104,VALID,0,VALID,23.3805,VALID,4,VALID,0,
2013-03-09, 01:30:04,VALID,1010.11,VALID,0,VALID,104,VALID,0,VALID,23.3823,VALID,4,VALID,0,
2013-03-09, 01:31:04,VALID,1010.07,VALID,0,VALID,104,VALID,0,VALID,23.4017,VALID,4,VALID,0,
2013-03-09, 01:32:04,VALID,1010.07,VALID,0,VALID,104,VALID,0,VALID,23.3823,VALID,4,VALID,0,
2013-03-09, 01:33:04,VALID,1010.06,VALID,0,VALID,104,VALID,0,VALID,23.3823,VALID,4,VALID,0,
2013-03-09, 01:34:04,VALID,1010.03,VALID,0,VALID,104,VALID,0,VALID,23.3823,VALID,4,VALID,0,
2013-03-09, 01:35:04,VALID,1010.05,VALID,0,VALID,104,VALID,0,VALID,23.3628,VALID,4,VALID,0,
2013-03-09, 01:36:04,VALID,1010.06,VALID,0,VALID,104,VALID,0,VALID,23.3628,VALID,4,VALID,0,
2013-03-09, 01:37:04,VALID,1010.06,VALID,0,VALID,104,VALID,0,VALID,23.3823,VALID,4,VALID,0,
2013-03-09, 01:38:04,VALID,1010.05,VALID,0,VALID,104,VALID,0,VALID,23.3823,VALID,4,VALID,0,
2013-03-09, 01:39:04,VALID,1010.04,VALID,0,VALID,104,VALID,0,VALID,23.4017,VALID,4,VALID,0,
2013-03-09, 01:40:04,VALID,1010.01,VALID,0,VALID,104,VALID,0,VALID,23.4017,VALID,4,VALID,0,
2013-03-09, 01:41:04,VALID,1010.02,VALID,0,VALID,104,VALID,0,VALID,23.4017,VALID,4,VALID,0,
2013-03-09, 01:42:04,VALID,1009.98,VALID,0,VALID,104,VALID,0,VALID,23.4017,VALID,4,VALID,0,
2013-03-09, 01:43:04,VALID,1010,VALID,0,VALID,104,VALID,0,VALID,23.3823,VALID,4,VALID,0,
2013-03-09, 01:44:04,VALID,1009.97,VALID,0,VALID,104,VALID,0,VALID,23.3823,VALID,4,VALID,0,
2013-03-09, 01:45:04,VALID,1010.01,VALID,0,VALID,104,VALID,0,VALID,23.4017,VALID,4,VALID,0.180078,
2013-03-09, 01:46:04,VALID,1009.97,VALID,0,VALID,104,VALID,0,VALID,23.4602,VALID,4,VALID,0,
2013-03-09, 01:47:04,VALID,1009.96,VALID,0,VALID,104,VALID,0,VALID,23.4797,VALID,4,VALID,0.0414063,
2013-03-09, 01:48:04,VALID,1009.97,VALID,0,VALID,104,VALID,0,VALID,23.4992,VALID,4,VALID,0.186719,
2013-03-09, 01:49:04,VALID,1009.93,VALID,0,VALID,104,VALID,0,VALID,23.5771,VALID,4,VALID,0,
2013-03-09, 01:50:04,VALID,1009.91,VALID,0,VALID,104,VALID,0,VALID,23.5771,VALID,4,VALID,0,
2013-03-09, 01:51:04,VALID,1009.9,VALID,0,VALID,104,VALID,0,VALID,23.5771,VALID,4,VALID,0,
2013-03-09, 01:52:04,VALID,1009.86,VALID,0,VALID,104,VALID,0,VALID,23.5771,VALID,4,VALID,0,
2013-03-09, 01:53:04,VALID,1009.87,VALID,0,VALID,104,VALID,0,VALID,23.5576,VALID,4,VALID,0,
2013-03-09, 01:54:04,VALID,1009.88,VALID,0,VALID,104,VALID,0,VALID,23.5169,VALID,4,VALID,0,
2013-03-09, 01:55:04,VALID,1009.88,VALID,0,VALID,104,VALID,0,VALID,23.5381,VALID,4,VALID,0.384766,
2013-03-09, 01:56:04,VALID,1009.88,VALID,0,VALID,104,VALID,0,VALID,23.5576,VALID,4,VALID,0.371875,
2013-03-09, 01:57:04,VALID,1009.86,VALID,0,VALID,104,VALID,0,VALID,23.5169,VALID,4,VALID,0.262891,
2013-03-09, 01:58:04,VALID,1009.82,VALID,0,VALID,104,VALID,0,VALID,23.5576,VALID,4,VALID,0.303906,
2013-03-09, 01:59:04,VALID,1009.8,VALID,0,VALID,104,VALID,0,VALID,23.5576,VALID,4,VALID,0.377344,
2013-03-09, 02:00:04,VALID,1009.8,VALID,0,VALID,104,VALID,0,VALID,23.5381,VALID,4,VALID,0.376172,
2013-03-09, 02:01:04,VALID,1009.78,VALID,0,VALID,104,VALID,0,VALID,23.4974,VALID,4,VALID,0.279687,
2013-03-09, 02:02:04,VALID,1009.76,VALID,0,VALID,104,VALID,0,VALID,23.4797,VALID,4,VALID,0.163281,
2013-03-09, 02:03:04,VALID,1009.75,VALID,0,VALID,104,VALID,0,VALID,23.4602,VALID,4,VALID,0.125391,
2013-03-09, 02:04:04,VALID,1009.72,VALID,0,VALID,104,VALID,0,VALID,23.4407,VALID,4,VALID,0.00195313,
2013-03-09, 02:05:04,VALID,1009.71,VALID,0,VALID,104,VALID,0,VALID,23.3628,VALID,4,VALID,0.332422,
2013-03-09, 02:06:04,VALID,1009.7,VALID,0,VALID,104,VALID,0,VALID,23.3415,VALID,4,VALID,0.246484,
2013-03-09, 02:07:04,VALID,1009.68,VALID,0,VALID,104,VALID,0,VALID,23.3043,VALID,4,VALID,0.216797,
2013-03-09, 02:08:04,VALID,1009.67,VALID,0,VALID,104,VALID,0,VALID,23.3043,VALID,4,VALID,0.199219,
2013-03-09, 02:09:04,VALID,1009.69,VALID,0,VALID,104,VALID,0,VALID,23.2848,VALID,4,VALID,0.111328,
2013-03-09, 02:10:04,VALID,1009.67,VALID,0,VALID,104,VALID,0,VALID,23.2848,VALID,4,VALID,0,
2013-03-09, 02:11:04,VALID,1009.68,VALID,0,VALID,104,VALID,0,VALID,23.2636,VALID,4,VALID,0,
2013-03-09, 02:12:04,VALID,1009.68,VALID,0,VALID,104,VALID,0,VALID,23.2441,VALID,4,VALID,0,
2013-03-09, 02:13:04,VALID,1009.66,VALID,0,VALID,104,VALID,0,VALID,23.2654,VALID,4,VALID,0,
2013-03-09, 02:14:04,VALID,1009.64,VALID,0,VALID,104,VALID,0,VALID,23.2654,VALID,4,VALID,0,
2013-03-09, 02:15:04,VALID,1009.63,VALID,0,VALID,104,VALID,0,VALID,23.2459,VALID,4,VALID,0.302734,
2013-03-09, 02:16:04,VALID,1009.63,VALID,0,VALID,104,VALID,0,VALID,23.2246,VALID,4,VALID,0.422266,
2013-03-09, 02:17:04,VALID,1009.58,VALID,0,VALID,104,VALID,0,VALID,23.2246,VALID,4,VALID,0.400781,
2013-03-09, 02:18:04,VALID,1009.58,VALID,0,VALID,104,VALID,0,VALID,23.2246,VALID,4,VALID,0.221875,
2013-03-09, 02:19:04,VALID,1009.54,VALID,0,VALID,104,VALID,0,VALID,23.2459,VALID,4,VALID,0.358984,
2013-03-09, 02:20:04,VALID,1009.54,VALID,0,VALID,104,VALID,0,VALID,23.2441,VALID,4,VALID,0.333984,
2013-03-09, 02:21:04,VALID,1009.5,VALID,0,VALID,104,VALID,0,VALID,23.2831,VALID,4,VALID,0.3375,
2013-03-09, 02:22:04,VALID,1009.49,VALID,0,VALID,104,VALID,0,VALID,23.3043,VALID,4,VALID,0.343359,
2013-03-09, 02:23:04,VALID,1009.49,VALID,0,VALID,104,VALID,0,VALID,23.2831,VALID,4,VALID,0.292188,
2013-03-09, 02:24:04,VALID,1009.47,VALID,0,VALID,104,VALID,0,VALID,23.3043,VALID,4,VALID,0.351953,
2013-03-09, 02:25:04,VALID,1009.49,VALID,0,VALID,104,VALID,0,VALID,23.2848,VALID,4,VALID,0.350391,
2013-03-09, 02:26:04,VALID,1009.5,VALID,0,VALID,104,VALID,0,VALID,23.2636,VALID,4,VALID,0.283984,
2013-03-09, 02:27:04,VALID,1009.46,VALID,0,VALID,104,VALID,0,VALID,23.2636,VALID,4,VALID,0.274609,
2013-03-09, 02:28:04,VALID,1009.48,VALID,0,VALID,104,VALID,0,VALID,23.2848,VALID,4,VALID,0.205469,
2013-03-09, 02:29:04,VALID,1009.45,VALID,0,VALID,104,VALID,0,VALID,23.2848,VALID,4,VALID,0.21875,
2013-03-09, 02:30:04,VALID,1009.47,VALID,0,VALID,104,VALID,0,VALID,23.2654,VALID,4,VALID,0.116016,
2013-03-09, 02:31:04,VALID,1009.46,VALID,0,VALID,104,VALID,0,VALID,23.2459,VALID,4,VALID,0,
2013-03-09, 02:32:04,VALID,1009.46,VALID,0,VALID,104,VALID,0,VALID,23.2069,VALID,4,VALID,0,
2013-03-09, 02:33:04,VALID,1009.43,VALID,0,VALID,104,VALID,0,VALID,23.1874,VALID,4,VALID,0,
2013-03-09, 02:34:04,VALID,1009.41,VALID,0,VALID,104,VALID,0,VALID,23.1272,VALID,4,VALID,0,
2013-03-09, 02:35:04,VALID,1009.41,VALID,0,VALID,104,VALID,0,VALID,23.1272,VALID,4,VALID,0,
2013-03-09, 02:36:04,VALID,1009.43,VALID,0,VALID,104,VALID,0,VALID,23.1272,VALID,4,VALID,0.160547,
2013-03-09, 02:37:04,VALID,1009.39,VALID,0,VALID,104,VALID,0,VALID,23.1679,VALID,4,VALID,0.227734,
2013-03-09, 02:38:04,VALID,1009.37,VALID,0,VALID,104,VALID,0,VALID,23.1272,VALID,4,VALID,0.228125,
2013-03-09, 02:39:04,VALID,1009.38,VALID,0,VALID,104,VALID,0,VALID,23.129,VALID,4,VALID,0.253125,
2013-03-09, 02:40:04,VALID,1009.37,VALID,0,VALID,104,VALID,0.112112,VALID,23.1077,VALID,4,VALID,0.253125,
2013-03-09, 02:41:04,VALID,1009.38,VALID,0,VALID,104,VALID,0,VALID,23.0883,VALID,4,VALID,0.157813,
2013-03-09, 02:42:04,VALID,1009.36,VALID,0,VALID,104,VALID,0,VALID,23.1095,VALID,4,VALID,0.133203,
2013-03-09, 02:43:04,VALID,1009.35,VALID,0,VALID,104,VALID,0,VALID,23.0883,VALID,4,VALID,0.139062,
2013-03-09, 02:44:04,VALID,1009.31,VALID,0,VALID,104,VALID,0,VALID,23.0883,VALID,4,VALID,0.112109,
2013-03-09, 02:45:04,VALID,1009.29,VALID,0,VALID,104,VALID,0,VALID,23.0883,VALID,4,VALID,0.161328,
2013-03-09, 02:46:04,VALID,1009.3,VALID,0,VALID,104,VALID,0,VALID,23.1095,VALID,4,VALID,0.139062,
2013-03-09, 02:47:04,VALID,1009.28,VALID,0,VALID,104,VALID,0,VALID,23.129,VALID,4,VALID,0.0429688,
2013-03-09, 02:48:04,VALID,1009.28,VALID,0,VALID,104,VALID,0,VALID,23.129,VALID,4,VALID,0,
2013-03-09, 02:49:04,VALID,1009.27,VALID,0,VALID,104,VALID,0.112112,VALID,23.129,VALID,4,VALID,0,
2013-03-09, 02:50:04,VALID,1009.27,VALID,0,VALID,104,VALID,0,VALID,23.0688,VALID,4,VALID,0,
2013-03-09, 02:51:04,VALID,1009.25,VALID,0,VALID,104,VALID,0.112112,VALID,23.09,VALID,4,VALID,0,
2013-03-09, 02:52:04,VALID,1009.22,VALID,0,VALID,104,VALID,0,VALID,23.0705,VALID,4,VALID,0,
2013-03-09, 02:53:04,VALID,1009.22,VALID,0,VALID,104,VALID,0,VALID,23.0493,VALID,4,VALID,0.0625,
2013-03-09, 02:54:04,VALID,1009.23,VALID,0,VALID,104,VALID,0,VALID,23.0705,VALID,4,VALID,0,
2013-03-09, 02:55:04,VALID,1009.23,VALID,0,VALID,104,VALID,0,VALID,23.09,VALID,4,VALID,0,
2013-03-09, 02:56:04,VALID,1009.25,VALID,0,VALID,104,VALID,0,VALID,23.0493,VALID,4,VALID,0,
2013-03-09, 02:57:04,VALID,1009.27,VALID,0,VALID,104,VALID,0,VALID,23.0298,VALID,4,VALID,0,
2013-03-09, 02:58:04,VALID,1009.26,VALID,0,VALID,104,VALID,0,VALID,23.0316,VALID,4,VALID,0,
2013-03-09, 02:59:04,VALID,1009.25,VALID,0,VALID,104,VALID,0,VALID,23.0316,VALID,4,VALID,0,
2013-03-09, 03:00:04,VALID,1009.27,VALID,0,VALID,104,VALID,0,VALID,23.0316,VALID,4,VALID,0,
2013-03-09, 03:01:04,VALID,1009.21,VALID,0,VALID,104,VALID,0,VALID,22.9926,VALID,4,VALID,0,
2013-03-09, 03:02:04,VALID,1009.22,VALID,0,VALID,104,VALID,0,VALID,22.9731,VALID,4,VALID,0.241797,
2013-03-09, 03:03:04,VALID,1009.27,VALID,0,VALID,104,VALID,0,VALID,22.9536,VALID,4,VALID,0.0976563,
2013-03-09, 03:04:04,VALID,1009.25,VALID,0,VALID,104,VALID,0,VALID,22.9342,VALID,4,VALID,0,
2013-03-09, 03:05:04,VALID,1009.23,VALID,0,VALID,104,VALID,0,VALID,22.9342,VALID,4,VALID,0,
2013-03-09, 03:06:04,VALID,1009.23,VALID,0,VALID,104,VALID,0,VALID,22.9342,VALID,4,VALID,0,
2013-03-09, 03:07:04,VALID,1009.24,VALID,0,VALID,104,VALID,0,VALID,22.9147,VALID,4,VALID,0,
2013-03-09, 03:08:04,VALID,1009.23,VALID,0,VALID,104,VALID,0,VALID,22.9536,VALID,4,VALID,0,
2013-03-09, 03:09:04,VALID,1009.22,VALID,0,VALID,104,VALID,0,VALID,22.9731,VALID,4,VALID,0,
2013-03-09, 03:10:04,VALID,1009.22,VALID,0,VALID,104,VALID,0,VALID,22.9714,VALID,3,VALID,0,
2013-03-09, 03:11:04,VALID,1009.22,VALID,0,VALID,104,VALID,0,VALID,23.0121,VALID,4,VALID,0,
2013-03-09, 03:12:04,VALID,1009.19,VALID,0,VALID,104,VALID,0,VALID,23.0121,VALID,4,VALID,0,
2013-03-09, 03:13:04,VALID,1009.21,VALID,0,VALID,104,VALID,0,VALID,23.0511,VALID,4,VALID,0.158203,
2013-03-09, 03:14:04,VALID,1009.23,VALID,0,VALID,104,VALID,0,VALID,23.0298,VALID,4,VALID,0.0609375,
2013-03-09, 03:15:04,VALID,1009.22,VALID,0,VALID,104,VALID,0,VALID,23.0511,VALID,4,VALID,0,
2013-03-09, 03:16:04,VALID,1009.25,VALID,0,VALID,104,VALID,0,VALID,23.0493,VALID,4,VALID,0,
2013-03-09, 03:17:04,VALID,1009.26,VALID,0,VALID,104,VALID,0,VALID,23.0121,VALID,4,VALID,0,
2013-03-09, 03:18:04,VALID,1009.29,VALID,0,VALID,104,VALID,0,VALID,22.9519,VALID,3,VALID,0,
2013-03-09, 03:19:04,VALID,1009.28,VALID,0,VALID,104,VALID,0,VALID,22.9342,VALID,3,VALID,0,
2013-03-09, 03:20:04,VALID,1009.31,VALID,0,VALID,104,VALID,0,VALID,22.9324,VALID,4,VALID,0.142578,
2013-03-09, 03:21:04,VALID,1009.32,VALID,0,VALID,104,VALID,0,VALID,22.9714,VALID,4,VALID,0,
2013-03-09, 03:22:04,VALID,1009.32,VALID,0,VALID,104,VALID,0,VALID,22.8952,VALID,4,VALID,0,
2013-03-09, 03:23:04,VALID,1009.32,VALID,0,VALID,104,VALID,0,VALID,22.8545,VALID,4,VALID,0,
2013-03-09, 03:24:04,VALID,1009.32,VALID,0,VALID,104,VALID,0,VALID,22.8562,VALID,4,VALID,0,
2013-03-09, 03:25:04,VALID,1009.32,VALID,0,VALID,104,VALID,0,VALID,22.8545,VALID,4,VALID,0,
2013-03-09, 03:26:04,VALID,1009.34,VALID,0,VALID,104,VALID,0,VALID,22.8545,VALID,4,VALID,0,
2013-03-09, 03:27:04,VALID,1009.36,VALID,0,VALID,104,VALID,0,VALID,22.8562,VALID,4,VALID,0.242969,
2013-03-09, 03:28:04,VALID,1009.37,VALID,0,VALID,104,VALID,0,VALID,22.835,VALID,4,VALID,0.2625,
2013-03-09, 03:29:04,VALID,1009.38,VALID,0,VALID,104,VALID,0,VALID,22.8545,VALID,3,VALID,0.194141,
2013-03-09, 03:30:04,VALID,1009.4,VALID,0,VALID,104,VALID,0,VALID,22.8757,VALID,4,VALID,0,
2013-03-09, 03:31:04,VALID,1009.44,VALID,0,VALID,104,VALID,0,VALID,22.8952,VALID,4,VALID,0,
2013-03-09, 03:32:04,VALID,1009.44,VALID,0,VALID,104,VALID,0,VALID,22.8757,VALID,4,VALID,0.0871094,
2013-03-09, 03:33:04,VALID,1009.46,VALID,0,VALID,104,VALID,0,VALID,22.8757,VALID,4,VALID,0,
2013-03-09, 03:34:04,VALID,1009.47,VALID,0,VALID,104,VALID,0,VALID,22.9147,VALID,4,VALID,0,
2013-03-09, 03:35:04,VALID,1009.46,VALID,0,VALID,104,VALID,0,VALID,22.9342,VALID,3,VALID,0,
2013-03-09, 03:36:04,VALID,1009.46,VALID,0,VALID,104,VALID,0,VALID,22.9536,VALID,4,VALID,0,
2013-03-09, 03:37:04,VALID,1009.45,VALID,0,VALID,104,VALID,0,VALID,22.9324,VALID,4,VALID,0,
2013-03-09, 03:38:04,VALID,1009.43,VALID,0,VALID,104,VALID,0,VALID,22.9324,VALID,4,VALID,0,
2013-03-09, 03:39:04,VALID,1009.45,VALID,0,VALID,104,VALID,0,VALID,22.8935,VALID,4,VALID,0,
2013-03-09, 03:40:04,VALID,1009.45,VALID,0,VALID,104,VALID,0,VALID,22.8952,VALID,4,VALID,0,
2013-03-09, 03:41:04,VALID,1009.45,VALID,0,VALID,104,VALID,0,VALID,22.874,VALID,4,VALID,0,
2013-03-09, 03:42:04,VALID,1009.44,VALID,0,VALID,104,VALID,0,VALID,22.874,VALID,4,VALID,0.121875,
2013-03-09, 03:43:04,VALID,1009.44,VALID,0,VALID,104,VALID,0,VALID,22.874,VALID,4,VALID,0.246875,
2013-03-09, 03:44:04,VALID,1009.45,VALID,0,VALID,104,VALID,0,VALID,22.9129,VALID,4,VALID,0.187891,
2013-03-09, 03:45:05,VALID,1009.48,VALID,0,VALID,104,VALID,0,VALID,22.9714,VALID,4,VALID,0.174219,
2013-03-09, 03:46:05,VALID,1009.49,VALID,0,VALID,104,VALID,0,VALID,23.0103,VALID,4,VALID,0.142969,
2013-03-09, 03:47:05,VALID,1009.53,VALID,0,VALID,104,VALID,0,VALID,23.0688,VALID,4,VALID,0.183594,
2013-03-09, 03:48:04,VALID,1009.56,VALID,0,VALID,104,VALID,0,VALID,23.1095,VALID,4,VALID,0,
2013-03-09, 03:49:05,VALID,1009.57,VALID,0,VALID,104,VALID,0,VALID,23.1095,VALID,3,VALID,0,
2013-03-09, 03:50:05,VALID,1009.55,VALID,0,VALID,104,VALID,0,VALID,23.0705,VALID,3,VALID,0,
2013-03-09, 03:51:05,VALID,1009.54,VALID,0,VALID,104,VALID,0,VALID,22.9926,VALID,4,VALID,0,
2013-03-09, 03:52:05,VALID,1009.57,VALID,0,VALID,104,VALID,0,VALID,22.9342,VALID,4,VALID,0.171094,
2013-03-09, 03:53:05,VALID,1009.53,VALID,0,VALID,104,VALID,0.112112,VALID,22.8952,VALID,4,VALID,0.227734,
2013-03-09, 03:54:05,VALID,1009.55,VALID,0,VALID,104,VALID,0,VALID,22.8757,VALID,3,VALID,0.180469,
2013-03-09, 03:55:05,VALID,1009.57,VALID,0,VALID,104,VALID,0,VALID,22.8368,VALID,4,VALID,0.0140625,
2013-03-09, 03:56:05,VALID,1009.54,VALID,0,VALID,104,VALID,0,VALID,22.8173,VALID,4,VALID,0.00507812,
2013-03-09, 03:57:05,VALID,1009.6,VALID,0,VALID,104,VALID,0,VALID,22.7766,VALID,4,VALID,0,
2013-03-09, 03:58:05,VALID,1009.6,VALID,0,VALID,104,VALID,0,VALID,22.6792,VALID,4,VALID,0,
2013-03-09, 03:59:05,VALID,1009.61,VALID,0,VALID,104,VALID,0,VALID,22.6792,VALID,4,VALID,0,
2013-03-09, 04:00:05,VALID,1009.64,VALID,0,VALID,104,VALID,0,VALID,22.7394,VALID,4,VALID,0,
2013-03-09, 04:01:05,VALID,1009.67,VALID,0,VALID,104,VALID,0,VALID,22.7182,VALID,4,VALID,0,
2013-03-09, 04:02:05,VALID,1009.7,VALID,0,VALID,104,VALID,0,VALID,22.7588,VALID,4,VALID,0,
2013-03-09, 04:03:05,VALID,1009.71,VALID,0,VALID,104,VALID,0,VALID,22.7783,VALID,4,VALID,0,
2013-03-09, 04:04:05,VALID,1009.72,VALID,0,VALID,104,VALID,0,VALID,22.7783,VALID,4,VALID,0,
2013-03-09, 04:05:05,VALID,1009.73,VALID,0,VALID,104,VALID,0,VALID,22.7783,VALID,4,VALID,0,
2013-03-09, 04:06:05,VALID,1009.73,VALID,0,VALID,104,VALID,0,VALID,22.7783,VALID,4,VALID,0,
2013-03-09, 04:07:05,VALID,1009.74,VALID,0,VALID,104,VALID,0,VALID,22.7978,VALID,4,VALID,0,